[[{"header":{"parameterUnit":"m.s-1","parameterCategory":2,"la1":30.2991,"la2":30.254,"lo1":-89.0895,"lo2":-89.0444,"dy":0.0017,"dx":0.0017,"nx":28,"ny":28,"refTime":"2025-04-25T21:00:00:Z","depth":"0","parameterNumber":2,"parameterNumberName":"U-component_of_CURRENTS"},"data":[0,0,0,0,0,0,0,0,0,0,0,0,0,0,0,0,0,0,0,0,0,0,0,0,0,0,0,0,0,0,0,0,0,0,0,0,0,0,0,0,0,0,0,0,0,0,0,0,0,0,0,0,0,0,0,0,0,0,0.3193,0.3195,0,0.3294,0.3295,0.3296,0.3312,0.3312,0.3312,0.3312,0.3308,0.3308,0.3308,0,0,0,0,0,0,0,0,0,0,0,0,0,0.3003,0.3006,0.3193,0.3195,0.3197,0.3294,0.3295,0.3296,0.3312,0.3312,0.3312,0.3311,0.3308,0.3308,0.3308,0,0,0,0,0,0,0,0,0,0,0,0,0,0.3087,0.3007,0.3193,0.3222,0.3226,0.3294,0.3295,0.3296,0.3312,0.3312,0.3312,0.3311,0.3308,0.3308,0.3308,0.3318,0,0,0.3309,0.3309,0,0,0,0,0,0,0,0,0.3082,0.3093,0.3215,0.322,0.3224,0.3296,0.3227,0.3301,0.3313,0.3273,0.3312,0.3311,0.3299,0.33,0.3312,0.3318,0.3318,0.3309,0.3309,0.331,0.331,0,0,0,0,0,0,0,0.3076,0.3089,0.3226,0.3218,0.3223,0.3226,0.3237,0.3241,0.328,0.3276,0.3279,0.3301,0.33,0.3312,0.3312,0.3318,0.3309,0.3309,0.331,0.331,0.338,0.3381,0,0,0,0,0,0,0.3078,0.3084,0.3223,0.323,0.3158,0.323,0.3242,0.3268,0.3282,0.3287,0.3301,0.3302,0.3312,0.3312,0.3312,0.3349,0.331,0.331,0.331,0.3378,0.338,0.3382,0,0,0,0,0,0,0.3074,0.309,0.3219,0.3164,0.3181,0.3235,0.3263,0.3271,0.3284,0.3304,0.3305,0.3309,0.3311,0.3311,0.3339,0.3347,0.331,0.331,0.3376,0.3379,0.3381,0.3406,0,0,0,0,0,0,0.3068,0.3088,0.3105,0.3164,0.3185,0.3262,0.3265,0.3273,0.3302,0.3303,0.331,0.331,0.3311,0.3339,0.334,0.3347,0.331,0.3374,0.3377,0.338,0.3403,0.3409,0.3414,0,0,0,0,0,0.3061,0.309,0.3106,0.3123,0.3208,0.3264,0.3273,0.3305,0.3302,0.3313,0.3333,0.331,0.3359,0.3341,0.3341,0.3349,0.3372,0.3376,0.338,0.3401,0.3408,0.3414,0,0,0,0,0,0,0.3036,0.3097,0.3115,0.3167,0.3213,0.3269,0.329,0.3306,0.333,0.333,0.3333,0.3335,0.3362,0.3359,0.3339,0.3382,0.3361,0.3365,0.3377,0.3384,0.3389,0.3403,0.3311,0,0,0,0,0,0.3036,0.306,0.3127,0.3168,0.3191,0.3237,0.3263,0.3286,0.3321,0.3331,0.3339,0.3355,0.3379,0.3384,0.3402,0.3421,0.3436,0.3428,0.3434,0.3439,0.3453,0.35,0.3511,0.3394,0.3394,0.3394,0,0,0.3037,0.3077,0.3091,0.3161,0.3197,0.3235,0.3249,0.3294,0.3323,0.3325,0.3356,0.3373,0.3392,0.3424,0.3434,0.3419,0.3479,0.3443,0.3447,0.3459,0.3505,0.3516,0.3526,0.3397,0.3396,0.3396,0,0,0.3046,0.3088,0.3105,0.3143,0.3205,0.3237,0.3249,0.3305,0.3325,0.3364,0.338,0.3415,0.3431,0.3462,0.3476,0.3524,0.3511,0.3518,0.355,0.3595,0.3605,0.3613,0.3638,0.3649,0.3516,0.3516,0.3516,0,0.3044,0.3084,0.3121,0.3153,0.3188,0.3235,0.3267,0.3302,0.3358,0.3385,0.3375,0.345,0.3456,0.3518,0.3538,0.3535,0.3553,0.3516,0.3601,0.361,0.3619,0.3643,0.3654,0.3517,0.3517,0.3517,0.3517,0,0.3065,0.3099,0.3117,0.3166,0.3206,0.3244,0.3304,0.3339,0.3364,0.3402,0.3466,0.3498,0.3544,0.3549,0.3556,0.3624,0.3613,0.3604,0.3579,0.3632,0.3654,0.3665,0.352,0.3519,0.3519,0.3518,0,0,0.3051,0.3114,0.312,0.3143,0.3216,0.3252,0.3307,0.3376,0.3428,0.3466,0.3531,0.3578,0.3602,0.3623,0.364,0.3679,0.3746,0.3667,0.3668,0.3683,0.3837,0.3829,0.384,0.3748,0.3751,0.3753,0.3824,0,0.3053,0.3097,0.3135,0.3183,0.3214,0.3276,0.3327,0.3396,0.3459,0.3533,0.3581,0.365,0.3628,0.3665,0.37,0.3749,0.378,0.3727,0.3792,0.3794,0.3774,0.3855,0.3783,0.3842,0.3835,0.3837,0.3838,0,0.3063,0.3088,0.3127,0.3196,0.3217,0.3252,0.3355,0.3414,0.3531,0.3587,0.3663,0.3709,0.3789,0.376,0.3851,0.3818,0.383,0.3853,0.3856,0.3852,0.3809,0.3792,0.3863,0.3781,0.3856,0.3855,0.3853,0,0.3034,0.309,0.3115,0.3139,0.3221,0.3252,0.3304,0.3421,0.3492,0.3635,0.3698,0.3794,0.3851,0.3894,0.3931,0.3901,0.4025,0.3984,0.3985,0.3983,0.3938,0.3929,0.3933,0.4045,0.4045,0.4045,0.4044,0,0.3034,0.3057,0.3097,0.3115,0.3161,0.3228,0.3306,0.3397,0.3523,0.3616,0.3716,0.3808,0.3889,0.3961,0.3974,0.4028,0.4055,0.4019,0.4017,0.3944,0.3935,0.3874,0.3826,0.4047,0.4047,0.4046,0.4046,0,0.3023,0.3045,0.3081,0.3137,0.3152,0.3194,0.3294,0.3364,0.3487,0.3616,0.3664,0.3835,0.3946,0.4008,0.4103,0.4086,0.4041,0.4138,0.4042,0.4029,0.3941,0.3897,0.3756,0.3636,0.4158,0.4159,0.4159,0,0.3025,0.3035,0.3085,0.3104,0.3128,0.3179,0.3224,0.3344,0.3427,0.3627,0.3689,0.3847,0.396,0.4104,0.4145,0.4194,0.4047,0.4125,0.4058,0.3956,0.3906,0.3718,0.3612,0.4001,0.4,0.4,0.3999,0,0.3026,0.3041,0.3071,0.31,0.3132,0.3167,0.3235,0.3292,0.3441,0.3536,0.3699,0.3809,0.3994,0.4055,0.4135,0.4149,0.3956,0.4111,0.4036,0.3826,0.359,0.3467,0.3918,0.3992,0.3993,0.3993,0.3994,0.3994,0.3027,0.3041,0.3067,0.3092,0.3123,0.3141,0.3135,0.3226,0.3315,0.343,0.3616,0.3715,0.3921,0.4055,0.4039,0.3998,0.391,0.3908,0.3876,0.3703,0.3546,0.3982,0.4035,0.4035,0.4036,0.4037,0.4037,0,0.2998,0.3012,0.3049,0.305,0.3038,0.3074,0.3122,0.3095,0.3133,0.33,0.3409,0.3603,0.3713,0.3825,0.3913,0.3796,0.3592,0.3691,0.3418,0.3333,0.3777,0.3733,0.3683,0.3683,0.3683,0.3683,0.3683,0.3683,0.2986,0.2985,0.299,0.2941,0.2934,0.2862,0.2856,0.2855,0.2928,0.3,0.3087,0.3228,0.3556,0.3792,0.3744,0.3644,0.3326,0.3209,0.3126,0.3483,0.3499,0.3515,0.3462,0.3357,0.3356,0.2563,0.2557,0.2553]},{"header":{"parameterUnit":"m.s-1","parameterCategory":2,"la1":30.2991,"la2":30.254,"lo1":-89.0895,"lo2":-89.0444,"dy":0.0017,"dx":0.0017,"nx":28,"ny":28,"refTime":"2025-04-25T21:00:00:Z","depth":"0","parameterNumber":3,"parameterNumberName":"V-component_of_CURRENTS"},"data":[0,0,0,0,0,0,0,0,0,0,0,0,0,0,0,0,0,0,0,0,0,0,0,0,0,0,0,0,0,0,0,0,0,0,0,0,0,0,0,0,0,0,0,0,0,0,0,0,0,0,0,0,0,0,0,0,0,0,0.0156,0.0155,0,0.0059,0.0058,0.0057,-0.0043,-0.0044,-0.0045,-0.0046,-0.0159,-0.0161,-0.0162,0,0,0,0,0,0,0,0,0,0,0,0,0,0.0206,0.0206,0.0156,0.0155,0.0154,0.0059,0.0058,0.0056,-0.0042,-0.0044,-0.0045,-0.0047,-0.0158,-0.016,-0.0163,0,0,0,0,0,0,0,0,0,0,0,0,0,0.0152,0.0206,0.0156,0.0095,0.0089,0.006,0.0058,0.0056,-0.0042,-0.0044,-0.0046,-0.0047,-0.0157,-0.016,-0.0163,-0.0146,0,0,-0.0172,-0.0173,0,0,0,0,0,0,0,0,0.0156,0.015,0.0105,0.0099,0.0092,0.0021,0.0034,-0.0012,-0.0042,0.0005,-0.0046,-0.0048,-0.0097,-0.0105,-0.0123,-0.0152,-0.0157,-0.0172,-0.0174,-0.0175,-0.0176,0,0,0,0,0,0,0,0.016,0.0154,0.0115,0.0104,0.0097,0.0056,0.0046,0.0025,-0.0037,0.0001,-0.0006,-0.0013,-0.0102,-0.012,-0.0126,-0.0158,-0.0172,-0.0175,-0.0176,-0.0177,-0.0211,-0.021,0,0,0,0,0,0,0.0181,0.0158,0.0119,0.0113,0.0123,0.0057,0.0046,0.0044,-0.0037,-0.005,-0.0011,-0.0017,-0.0114,-0.0123,-0.013,-0.0119,-0.0175,-0.0178,-0.0179,-0.0211,-0.021,-0.021,0,0,0,0,0,0,0.0182,0.0178,0.0123,0.0134,0.0125,0.0058,0.0056,0.0043,0.0025,-0.0045,-0.006,-0.0015,-0.0116,-0.0126,-0.0152,-0.0124,-0.0179,-0.0182,-0.0212,-0.0211,-0.021,-0.0094,0,0,0,0,0,0,0.0184,0.018,0.0188,0.0136,0.0125,0.0119,0.0057,0.0042,0.0025,0.0016,-0.0053,-0.0066,-0.0118,-0.0148,-0.0155,-0.0129,-0.0184,-0.0214,-0.0212,-0.021,-0.0099,-0.0089,-0.008,0,0,0,0,0,0.0186,0.0212,0.0189,0.0185,0.0138,0.012,0.0111,0.0055,0.0027,0.0031,-0.0025,-0.0063,-0.0143,-0.0149,-0.0158,-0.0132,-0.0214,-0.0212,-0.0211,-0.0103,-0.0091,-0.008,0,0,0,0,0,0,0.0241,0.0202,0.0177,0.0189,0.0162,0.0104,0.0105,0.0071,0.0031,0.0022,-0.0051,-0.0066,-0.0082,-0.012,-0.0125,-0.0139,-0.0185,-0.0184,-0.01,-0.0089,-0.008,-0.0055,-0.0186,0,0,0,0,0,0.0259,0.0261,0.022,0.0229,0.0222,0.0168,0.0154,0.0121,0.0079,0.0059,0.0009,-0.0042,-0.0078,-0.0094,-0.0135,-0.0132,-0.0177,-0.0123,-0.0114,-0.0105,-0.0092,-0.0142,-0.0136,-0.0203,-0.0203,-0.0203,0,0,0.0281,0.0261,0.0261,0.024,0.0213,0.0219,0.0155,0.0149,0.0151,0.0057,0.0045,-0.001,-0.0073,-0.0083,-0.0092,-0.0111,-0.0109,-0.0103,-0.0095,-0.0087,-0.0139,-0.0133,-0.0127,-0.0202,-0.0202,-0.0202,0,0,0.0333,0.0313,0.0334,0.0321,0.0296,0.0266,0.0272,0.0227,0.0203,0.0188,0.0117,0.0082,0.0029,-0.0012,-0.0038,0.0004,-0.0062,-0.0009,0.0066,0.0018,0.0023,0.0027,-0.0016,-0.0016,0.0001,0.0002,0.0002,0,0.0361,0.0381,0.0339,0.0359,0.0359,0.0297,0.0325,0.03,0.0249,0.0241,0.02,0.0118,0.0065,0.0051,0.0057,0.0027,-0.0013,0.0031,0.0031,0.0034,0.0036,-0.0009,-0.0011,0.0007,0.0007,0.0006,0.0006,0,0.0426,0.0443,0.0459,0.046,0.0456,0.0473,0.0437,0.0429,0.0391,0.0356,0.033,0.0248,0.02,0.0178,0.0128,0.0126,0.0087,0.0045,0.0007,0.005,-0.0,-0.0005,0.0016,0.0014,0.0012,0.0011,0,0,0.0477,0.0502,0.0505,0.0529,0.0514,0.0522,0.0534,0.0528,0.0544,0.0479,0.0486,0.0411,0.0359,0.0325,0.0257,0.0216,0.0192,0.0148,0.0142,0.0115,0.0088,0.0069,0.0061,0.0147,0.0147,0.0147,0.0049,0,0.0538,0.0609,0.0596,0.0657,0.0692,0.0651,0.0668,0.0652,0.0625,0.0616,0.053,0.0506,0.0418,0.0398,0.0344,0.0227,0.0185,0.0223,0.0043,0.0038,0.0023,0.0057,0.0077,-0.0007,0.0045,0.0044,0.0043,0,0.0599,0.0641,0.0719,0.0764,0.0774,0.0797,0.0819,0.083,0.0798,0.0778,0.0734,0.0656,0.0588,0.0504,0.034,0.0366,0.0245,0.0149,0.0142,0.0082,0.0011,-0.0045,-0.0018,-0.0207,0.0035,0.0036,0.0037,0,0.0657,0.0723,0.0793,0.0808,0.0845,0.0871,0.0887,0.088,0.0915,0.0885,0.0896,0.0787,0.0743,0.0577,0.0374,0.0355,0.0185,0.0129,-0.0,-0.0004,-0.0042,-0.0048,-0.021,0.002,0.002,0.002,0.002,0,0.0728,0.0781,0.0829,0.0869,0.0954,0.0947,0.1025,0.1027,0.1048,0.1105,0.0988,0.1005,0.0758,0.0625,0.0422,0.0206,0.0218,0.0025,-0.0025,-0.0,-0.0001,-0.0214,-0.0332,0.0016,0.0017,0.0018,0.0019,0,0.0786,0.0812,0.0902,0.0964,0.0987,0.1051,0.1132,0.1194,0.1193,0.1264,0.1261,0.1171,0.1,0.0739,0.0475,0.0289,-0.0044,-0.0013,0.0037,-0.0005,-0.0297,-0.0409,-0.0634,-0.0714,-0.0166,-0.0167,-0.0168,0,0.0829,0.088,0.0978,0.1042,0.1078,0.1165,0.123,0.1267,0.135,0.1376,0.1429,0.1291,0.1229,0.0836,0.047,0.0118,-0.0078,-0.009,-0.0122,-0.0298,-0.046,-0.0538,-0.0594,-0.0133,-0.0133,-0.0134,-0.0134,0,0.0916,0.0943,0.102,0.1147,0.1236,0.1342,0.1445,0.1535,0.1582,0.1647,0.1713,0.1665,0.1286,0.0958,0.0466,0.0209,-0.0218,-0.0108,-0.0309,-0.0455,-0.0533,-0.0637,-0.0087,-0.0137,-0.0137,-0.0137,-0.0137,-0.0137,0.0979,0.1049,0.1143,0.1264,0.1371,0.151,0.161,0.1737,0.1879,0.1989,0.1937,0.1905,0.1409,0.0752,0.0381,-0.0259,-0.0268,-0.0434,-0.0557,-0.062,-0.0692,-0.0138,-0.0233,-0.0233,-0.0234,-0.0234,-0.0234,0,0.1051,0.1128,0.1253,0.1394,0.1518,0.1556,0.1744,0.186,0.2043,0.2144,0.2197,0.1938,0.1341,0.0707,-0.0148,-0.0601,-0.0769,-0.0857,-0.0971,-0.1008,-0.0532,-0.0522,-0.066,-0.0659,-0.0659,-0.0659,-0.0659,-0.0659,0.1094,0.1209,0.1271,0.1482,0.1583,0.175,0.1862,0.205,0.2176,0.2311,0.2298,0.2244,0.1757,0.0245,-0.0773,-0.102,-0.1342,-0.1428,-0.1579,-0.1267,-0.1237,-0.1208,-0.1225,-0.1508,-0.1509,-0.1973,-0.1979,-0.1982]}],[{"header":{"parameterUnit":"m.s-1","parameterCategory":2,"la1":30.2991,"la2":30.254,"lo1":-89.0895,"lo2":-89.0444,"dy":0.0017,"dx":0.0017,"nx":28,"ny":28,"refTime":"2025-04-25T21:00:00:Z","depth":"2","parameterNumber":2,"parameterNumberName":"U-component_of_CURRENTS"},"data":[0,0,0,0,0,0,0,0,0,0,0,0,0,0,0,0,0,0,0,0,0,0,0,0,0,0,0,0,0,0,0,0,0,0,0,0,0,0,0,0,0,0,0,0,0,0,0,0,0,0,0,0,0,0,0,0,0,0,0.2549,0.255,0,0.263,0.2631,0.2631,0.273,0.2732,0.2734,0.2736,0.2793,0.2793,0.2792,0,0,0,0,0,0,0,0,0,0,0,0,0,0.2428,0.243,0.2549,0.255,0.2552,0.263,0.2631,0.2631,0.273,0.2732,0.2735,0.2737,0.2793,0.2793,0.2792,0,0,0,0,0,0,0,0,0,0,0,0,0,0.2487,0.243,0.2548,0.2615,0.2622,0.263,0.2631,0.2631,0.2729,0.2733,0.2736,0.2739,0.2794,0.2793,0.2792,0.2726,0,0,0.279,0.279,0,0,0,0,0,0,0,0,0.2483,0.249,0.2603,0.261,0.2618,0.2678,0.261,0.2664,0.2729,0.2683,0.2736,0.274,0.2754,0.2757,0.2757,0.2729,0.2731,0.279,0.279,0.279,0.279,0,0,0,0,0,0,0,0.2479,0.2487,0.2575,0.2605,0.2614,0.2623,0.2635,0.262,0.2695,0.2687,0.2696,0.2713,0.2757,0.2758,0.2759,0.2732,0.279,0.279,0.2789,0.2789,0.2835,0.2836,0,0,0,0,0,0,0.248,0.2483,0.2573,0.2578,0.2563,0.2624,0.2636,0.2651,0.2696,0.2708,0.271,0.2717,0.2757,0.276,0.2762,0.283,0.279,0.2789,0.2789,0.2833,0.2835,0.2837,0,0,0,0,0,0,0.2477,0.2487,0.257,0.2537,0.255,0.2623,0.2639,0.2651,0.2681,0.2715,0.2726,0.2731,0.276,0.2763,0.2801,0.2828,0.2789,0.2788,0.2831,0.2834,0.2836,0.2874,0,0,0,0,0,0,0.2473,0.2485,0.2503,0.2537,0.2552,0.2611,0.2637,0.2651,0.2688,0.2698,0.2735,0.2743,0.2762,0.2802,0.2801,0.2826,0.2788,0.2829,0.2832,0.2835,0.2871,0.2877,0.2883,0,0,0,0,0,0.2468,0.2493,0.2502,0.2514,0.2571,0.2613,0.2621,0.2679,0.2686,0.2711,0.2745,0.2743,0.2821,0.2802,0.28,0.2826,0.2828,0.2831,0.2835,0.2868,0.2876,0.2883,0,0,0,0,0,0,0.2445,0.2506,0.2518,0.2558,0.2595,0.2633,0.2665,0.2677,0.2717,0.2735,0.2749,0.2759,0.2809,0.2805,0.2784,0.2852,0.2827,0.2831,0.2854,0.2861,0.2867,0.2874,0.2787,0,0,0,0,0,0.2444,0.2487,0.2528,0.2561,0.2581,0.2612,0.2635,0.2672,0.2708,0.2729,0.2749,0.2779,0.2811,0.2829,0.2855,0.2867,0.2881,0.2889,0.2895,0.29,0.2907,0.2959,0.2971,0.2848,0.2848,0.2848,0,0,0.2447,0.2483,0.251,0.2561,0.259,0.2622,0.2635,0.2685,0.2717,0.2723,0.2771,0.2796,0.2821,0.2869,0.2888,0.2873,0.2943,0.2905,0.2909,0.2913,0.2964,0.2976,0.2987,0.2851,0.285,0.285,0,0,0.2463,0.2501,0.2536,0.2569,0.2625,0.2648,0.2661,0.2703,0.2739,0.2774,0.2803,0.2848,0.287,0.2913,0.293,0.2973,0.2976,0.2981,0.3012,0.3063,0.3073,0.3083,0.3114,0.3126,0.2981,0.2981,0.2981,0,0.247,0.2504,0.2551,0.2583,0.2615,0.2656,0.2685,0.2719,0.2771,0.2799,0.2808,0.288,0.2896,0.2962,0.2992,0.2987,0.3012,0.2979,0.3071,0.308,0.3089,0.3119,0.3132,0.2984,0.2983,0.2983,0.2983,0,0.2493,0.253,0.2554,0.2609,0.2648,0.2688,0.2738,0.278,0.2809,0.2842,0.2916,0.2949,0.2997,0.3009,0.3012,0.3087,0.3082,0.3074,0.3049,0.3104,0.3132,0.3144,0.2987,0.2986,0.2985,0.2985,0,0,0.2489,0.2559,0.2566,0.2594,0.2667,0.2699,0.2761,0.2825,0.2875,0.2924,0.2987,0.3041,0.3064,0.3086,0.3102,0.3142,0.3219,0.3136,0.3138,0.3162,0.3329,0.3301,0.3311,0.3231,0.3234,0.3236,0.3322,0,0.2493,0.2542,0.2581,0.2636,0.2669,0.2732,0.2784,0.2854,0.2918,0.2992,0.3044,0.3112,0.3093,0.3131,0.3169,0.3218,0.3254,0.3196,0.3277,0.3279,0.3244,0.3326,0.3082,0.3137,0.3334,0.3336,0.3337,0,0.2496,0.2532,0.2578,0.2657,0.2677,0.2716,0.2819,0.2875,0.299,0.3048,0.3127,0.3174,0.3254,0.3227,0.3326,0.3294,0.3314,0.3337,0.3341,0.3311,0.3275,0.3115,0.3151,0.3358,0.3356,0.3355,0.3353,0,0.246,0.2532,0.2566,0.2594,0.2686,0.2723,0.2775,0.2887,0.2958,0.3093,0.3163,0.3257,0.3322,0.337,0.3414,0.3385,0.3519,0.348,0.347,0.3467,0.3272,0.3248,0.3546,0.3546,0.3546,0.3546,0.3545,0,0.2449,0.2479,0.2552,0.2573,0.2626,0.2703,0.2784,0.286,0.2994,0.308,0.3183,0.3272,0.3365,0.3446,0.3461,0.3516,0.3557,0.3498,0.3501,0.3279,0.3256,0.3452,0.344,0.3549,0.3548,0.3548,0.3547,0,0.241,0.2453,0.2501,0.2585,0.2609,0.2651,0.2771,0.2843,0.2972,0.3093,0.3142,0.3313,0.3427,0.3502,0.3601,0.358,0.363,0.3629,0.336,0.333,0.3526,0.3515,0.3632,0.3632,0.3633,0.3633,0.3633,0,0.2395,0.2416,0.2492,0.2517,0.2553,0.2626,0.2681,0.2815,0.2896,0.3103,0.3154,0.3326,0.3428,0.3579,0.3595,0.3643,0.3663,0.342,0.3317,0.3551,0.3542,0.3531,0.352,0.3066,0.3062,0.3058,0.3055,0,0.2365,0.2393,0.2422,0.2476,0.2524,0.2575,0.2657,0.2712,0.2873,0.2985,0.3131,0.3238,0.3416,0.3385,0.347,0.3449,0.3396,0.3347,0.3677,0.3093,0.3028,0.3015,0.3021,0.3021,0.3025,0.3027,0.3029,0.303,0.2331,0.234,0.2378,0.2415,0.2469,0.2488,0.2495,0.2597,0.2685,0.2805,0.2987,0.3066,0.3168,0.3193,0.3126,0.3076,0.3294,0.3134,0.3141,0.3153,0.3083,0.3023,0.3001,0.3004,0.3007,0.3009,0.3011,0,0.2284,0.2284,0.2318,0.2335,0.2348,0.241,0.2454,0.2435,0.2472,0.2639,0.275,0.2628,0.2667,0.2744,0.2642,0.2676,0.2597,0.255,0.2413,0.2453,0.2487,0.2375,0.2109,0.2105,0.2102,0.2099,0,0,0.2248,0.2226,0.2226,0.2187,0.2219,0.217,0.2164,0.2162,0.2227,0.225,0.2304,0.2557,0.2699,0.2359,0.2347,0.2203,0.2291,0.2123,0.2863,0.2743,0.2771,0.2863,0.2744,0,0,0,0,0]},{"header":{"parameterUnit":"m.s-1","parameterCategory":2,"la1":30.2991,"la2":30.254,"lo1":-89.0895,"lo2":-89.0444,"dy":0.0017,"dx":0.0017,"nx":28,"ny":28,"refTime":"2025-04-25T21:00:00:Z","depth":"2","parameterNumber":3,"parameterNumberName":"V-component_of_CURRENTS"},"data":[0,0,0,0,0,0,0,0,0,0,0,0,0,0,0,0,0,0,0,0,0,0,0,0,0,0,0,0,0,0,0,0,0,0,0,0,0,0,0,0,0,0,0,0,0,0,0,0,0,0,0,0,0,0,0,0,0,0,-0.0022,-0.0022,0,-0.0089,-0.009,-0.009,-0.0167,-0.0167,-0.0168,-0.0169,-0.0268,-0.0269,-0.0271,0,0,0,0,0,0,0,0,0,0,0,0,0,-0.0019,-0.0018,-0.0022,-0.0022,-0.0023,-0.0088,-0.009,-0.0091,-0.0166,-0.0168,-0.0169,-0.017,-0.0267,-0.0269,-0.0271,0,0,0,0,0,0,0,0,0,0,0,0,0,-0.0048,-0.0018,-0.0021,-0.0067,-0.0072,-0.0088,-0.009,-0.0091,-0.0166,-0.0168,-0.0169,-0.017,-0.0267,-0.0269,-0.0272,-0.0259,0,0,-0.028,-0.0281,0,0,0,0,0,0,0,0,-0.0046,-0.0048,-0.006,-0.0064,-0.0069,-0.0119,-0.0125,-0.0148,-0.0166,-0.0132,-0.0169,-0.0171,-0.0219,-0.0225,-0.0237,-0.0264,-0.0268,-0.028,-0.0281,-0.0282,-0.0283,0,0,0,0,0,0,0,-0.0044,-0.0046,-0.005,-0.006,-0.0066,-0.0105,-0.011,-0.013,-0.0169,-0.0135,-0.0141,-0.0144,-0.0222,-0.0234,-0.024,-0.0269,-0.028,-0.0282,-0.0284,-0.0285,-0.0328,-0.0328,0,0,0,0,0,0,-0.0027,-0.0044,-0.0048,-0.0052,-0.0059,-0.0103,-0.0109,-0.0103,-0.0168,-0.0178,-0.0143,-0.0148,-0.0229,-0.0237,-0.0244,-0.0245,-0.0282,-0.0285,-0.0286,-0.0329,-0.0328,-0.0328,0,0,0,0,0,0,-0.0026,-0.0026,-0.0045,-0.0049,-0.0054,-0.0101,-0.0094,-0.0104,-0.0117,-0.0173,-0.0185,-0.0146,-0.0231,-0.024,-0.0265,-0.0249,-0.0286,-0.0288,-0.0329,-0.0328,-0.0328,-0.0238,0,0,0,0,0,0,-0.0026,-0.0025,-0.0014,-0.0047,-0.0053,-0.0047,-0.0093,-0.0104,-0.0116,-0.0123,-0.0179,-0.019,-0.0232,-0.0261,-0.0268,-0.0253,-0.029,-0.033,-0.0329,-0.0328,-0.0242,-0.0235,-0.0229,0,0,0,0,0,-0.0025,0.0003,-0.0013,-0.0014,-0.0035,-0.0046,-0.0052,-0.0094,-0.0115,-0.0112,-0.0157,-0.0189,-0.0262,-0.0262,-0.0271,-0.0256,-0.033,-0.0329,-0.0328,-0.0245,-0.0236,-0.0229,0,0,0,0,0,0,0.0009,-0.0003,-0.0021,0.0001,-0.0019,-0.0058,-0.0056,-0.0082,-0.0114,-0.0122,-0.018,-0.0193,-0.0212,-0.0244,-0.0244,-0.0268,-0.0302,-0.0302,-0.0236,-0.0228,-0.0221,-0.0202,-0.0293,0,0,0,0,0,0.0024,0.0041,0.0015,0.0032,0.0027,-0.0013,-0.0022,-0.0047,-0.0079,-0.0095,-0.0134,-0.0178,-0.0212,-0.0228,-0.0263,-0.0267,-0.0303,-0.0266,-0.0259,-0.0253,-0.0244,-0.0285,-0.0281,-0.0325,-0.0325,-0.0325,0,0,0.0041,0.0038,0.0046,0.004,0.002,0.0026,-0.0022,-0.0026,-0.0025,-0.0099,-0.0107,-0.0153,-0.0209,-0.0224,-0.0235,-0.025,-0.0259,-0.0252,-0.0247,-0.0241,-0.0284,-0.028,-0.0276,-0.0324,-0.0324,-0.0324,0,0,0.0087,0.0082,0.0109,0.0101,0.0084,0.0061,0.0065,0.0033,0.0014,0.0001,-0.0056,-0.009,-0.0134,-0.0174,-0.02,-0.0174,-0.0225,-0.0186,-0.0133,-0.0173,-0.017,-0.0167,-0.0201,-0.0202,-0.0181,-0.018,-0.018,0,0.0108,0.0138,0.0114,0.0134,0.0136,0.0084,0.0107,0.0085,0.0047,0.0039,0.0009,-0.0063,-0.011,-0.0134,-0.0133,-0.0158,-0.0188,-0.0156,-0.0163,-0.0161,-0.016,-0.0196,-0.0198,-0.0176,-0.0176,-0.0177,-0.0177,0,0.0168,0.0189,0.0206,0.0215,0.0212,0.0226,0.0194,0.0186,0.0156,0.0127,0.0098,0.0029,-0.0014,-0.0036,-0.0079,-0.0091,-0.0118,-0.015,-0.0178,-0.015,-0.019,-0.0194,-0.017,-0.0171,-0.0173,-0.0174,0,0,0.0215,0.0245,0.0249,0.0271,0.0259,0.0266,0.027,0.0259,0.0269,0.0215,0.0219,0.0145,0.0104,0.0071,0.0012,-0.0026,-0.0049,-0.0077,-0.0081,-0.0101,-0.0133,-0.0151,-0.0158,-0.0082,-0.0083,-0.0083,-0.0161,0,0.0266,0.0332,0.0325,0.0376,0.0406,0.037,0.0379,0.036,0.0333,0.0323,0.0243,0.0221,0.0146,0.013,0.0078,-0.0017,-0.0057,-0.0025,-0.0165,-0.0169,-0.0182,-0.0163,-0.0137,-0.0205,-0.0166,-0.0166,-0.0167,0,0.0319,0.036,0.0427,0.0466,0.0474,0.0491,0.0502,0.0506,0.0469,0.0451,0.0407,0.0343,0.0278,0.0211,0.0068,0.0092,-0.0008,-0.0087,-0.0093,-0.0143,-0.0195,-0.023,-0.0215,-0.0175,-0.0174,-0.0173,-0.0173,0,0.0364,0.0426,0.0486,0.05,0.0533,0.0552,0.056,0.0543,0.0568,0.0535,0.0546,0.0445,0.0409,0.027,0.0102,0.0087,-0.0058,-0.0102,-0.0213,-0.0216,-0.0239,-0.0242,-0.0198,-0.0198,-0.0198,-0.0198,-0.0198,0,0.0418,0.0464,0.0516,0.055,0.0619,0.0614,0.0676,0.0665,0.0677,0.0716,0.0618,0.0627,0.0423,0.0312,0.0143,-0.004,-0.0028,-0.0197,-0.0235,-0.0207,-0.0207,-0.0219,-0.022,-0.0201,-0.02,-0.02,-0.0199,0,0.0452,0.0485,0.056,0.062,0.0643,0.0689,0.0762,0.0811,0.0804,0.0853,0.0851,0.0767,0.0625,0.0413,0.019,0.0029,-0.0155,-0.0225,-0.0175,-0.0205,-0.0299,-0.0295,-0.0355,-0.0356,-0.0358,-0.0358,-0.0359,0,0.0477,0.0522,0.0616,0.0671,0.0702,0.0778,0.0838,0.0868,0.0931,0.0943,0.0977,0.0867,0.0807,0.0478,0.0176,-0.0114,-0.0155,-0.0283,-0.0314,-0.0283,-0.0314,-0.0308,-0.0303,-0.031,-0.0311,-0.0311,-0.0311,0,0.0524,0.0554,0.0618,0.0737,0.0817,0.0913,0.1,0.1071,0.1108,0.1154,0.1185,0.1141,0.0838,0.0558,0.0161,-0.0043,-0.0237,-0.0298,-0.0279,-0.027,-0.0246,-0.0275,-0.027,-0.0313,-0.0313,-0.0313,-0.0313,-0.0313,0.0552,0.0606,0.0696,0.0805,0.0905,0.1024,0.1116,0.1214,0.1317,0.1388,0.1342,0.1293,0.0967,0.0475,0.0119,-0.0255,-0.0243,-0.0374,-0.0371,-0.0368,-0.0344,-0.0323,-0.04,-0.0401,-0.0401,-0.0401,-0.0401,0,0.0599,0.0662,0.0764,0.0895,0.1013,0.1062,0.1215,0.1306,0.1436,0.1503,0.1533,0.1236,0.0917,0.0541,-0.0008,-0.0339,-0.037,-0.0445,-0.0404,-0.04,-0.0396,-0.0373,-0.0437,-0.0438,-0.0439,-0.044,0,0,0.0624,0.0722,0.0775,0.0959,0.1064,0.122,0.1315,0.1442,0.1528,0.1596,0.1588,0.1524,0.1059,0.0662,0.0204,-0.0111,-0.018,-0.0181,-0.0117,-0.0011,-0.0003,-0.0323,-0.0277,0,0,0,0,0]}],[{"header":{"parameterUnit":"m.s-1","parameterCategory":2,"la1":30.2991,"la2":30.254,"lo1":-89.0895,"lo2":-89.0444,"dy":0.0017,"dx":0.0017,"nx":28,"ny":28,"refTime":"2025-04-25T21:00:00:Z","depth":"4","parameterNumber":2,"parameterNumberName":"U-component_of_CURRENTS"},"data":[0,0,0,0,0,0,0,0,0,0,0,0,0,0,0,0,0,0,0,0,0,0,0,0,0,0,0,0,0,0,0,0,0,0,0,0,0,0,0,0,0,0,0,0,0,0,0,0,0,0,0,0,0,0,0,0,0,0,0.1475,0.1476,0,0.1581,0.1582,0.1584,0.1627,0.1627,0.1626,0.1626,0.1739,0.1743,0.1746,0,0,0,0,0,0,0,0,0,0,0,0,0,0.1335,0.1337,0.1475,0.1477,0.1478,0.1581,0.1582,0.1584,0.1627,0.1627,0.1626,0.1626,0.1738,0.1742,0.1746,0,0,0,0,0,0,0,0,0,0,0,0,0,0.1415,0.1338,0.1475,0.151,0.1515,0.158,0.1582,0.1584,0.1627,0.1627,0.1626,0.1625,0.1737,0.1742,0.1747,0.1789,0,0,0.1762,0.1764,0,0,0,0,0,0,0,0,0.1411,0.142,0.1504,0.1508,0.1513,0.1589,0.1574,0.1653,0.1627,0.1586,0.1626,0.1625,0.1689,0.1698,0.1721,0.1795,0.1799,0.1763,0.1766,0.1768,0.1769,0,0,0,0,0,0,0,0.1405,0.1416,0.1519,0.1505,0.1511,0.1529,0.154,0.159,0.1641,0.159,0.1593,0.1602,0.1692,0.1716,0.1724,0.1801,0.1763,0.1767,0.177,0.1772,0.1985,0.1987,0,0,0,0,0,0,0.1389,0.1411,0.1515,0.1522,0.1457,0.1532,0.1544,0.1566,0.164,0.165,0.1602,0.1604,0.1708,0.1718,0.1728,0.1852,0.1768,0.1773,0.1775,0.1982,0.1985,0.1988,0,0,0,0,0,0,0.1385,0.1397,0.1511,0.1467,0.1482,0.1535,0.1559,0.1569,0.1622,0.165,0.166,0.1649,0.1708,0.1721,0.1798,0.1854,0.1775,0.1779,0.1979,0.1983,0.1987,0.2055,0,0,0,0,0,0,0.1381,0.1396,0.1426,0.1466,0.1484,0.1571,0.156,0.1571,0.1626,0.1629,0.1693,0.1701,0.1708,0.1791,0.1803,0.1859,0.1783,0.1976,0.1981,0.1985,0.2049,0.206,0.207,0,0,0,0,0,0.1376,0.1413,0.1427,0.144,0.1517,0.1573,0.1585,0.162,0.1629,0.1664,0.1704,0.17,0.1831,0.1797,0.1811,0.187,0.1973,0.1979,0.1985,0.2044,0.2058,0.207,0,0,0,0,0,0,0.1365,0.1422,0.1438,0.149,0.1537,0.158,0.1621,0.1642,0.1704,0.1717,0.1736,0.1748,0.1836,0.1847,0.181,0.1946,0.1902,0.1911,0.1942,0.1955,0.1966,0.1947,0.1788,0,0,0,0,0,0.1376,0.1426,0.147,0.1518,0.1544,0.1591,0.1625,0.1651,0.1698,0.1727,0.1773,0.1821,0.1869,0.1906,0.195,0.203,0.2032,0.2077,0.2088,0.2097,0.2093,0.2144,0.2158,0.2007,0.2007,0.2007,0,0,0.1387,0.1424,0.1454,0.1521,0.1563,0.1614,0.1612,0.1677,0.1725,0.173,0.1829,0.1865,0.1899,0.1982,0.2023,0.2001,0.2145,0.2104,0.2111,0.2102,0.2152,0.2166,0.2179,0.2011,0.2011,0.201,0,0,0.1419,0.1467,0.1514,0.156,0.1627,0.1657,0.1682,0.1751,0.1791,0.1878,0.1892,0.1957,0.2047,0.2076,0.2099,0.2197,0.2197,0.2227,0.2271,0.2322,0.2334,0.2345,0.2378,0.2391,0.2234,0.2234,0.2235,0,0.1431,0.1492,0.1537,0.159,0.1631,0.1679,0.1733,0.1784,0.1873,0.1911,0.1918,0.2053,0.2085,0.2166,0.22,0.2221,0.2245,0.2217,0.2334,0.2345,0.2354,0.2385,0.2399,0.2238,0.2238,0.2237,0.2237,0,0.1484,0.1547,0.1582,0.1664,0.1715,0.1775,0.1836,0.1904,0.1957,0.2001,0.2107,0.2156,0.2228,0.2259,0.2261,0.2357,0.2351,0.2338,0.2295,0.2373,0.2401,0.2414,0.2244,0.2243,0.2241,0.224,0,0,0.1474,0.1595,0.1611,0.1658,0.176,0.1802,0.1893,0.1976,0.2034,0.2127,0.2206,0.2293,0.2322,0.2349,0.2375,0.2421,0.2515,0.2417,0.2418,0.2437,0.263,0.2475,0.2473,0.2531,0.2533,0.2535,0.2625,0,0.1504,0.1602,0.1659,0.176,0.1813,0.1886,0.1961,0.2044,0.2118,0.2211,0.2271,0.2361,0.2357,0.2407,0.2455,0.2507,0.2551,0.2491,0.2562,0.2563,0.2405,0.2483,0.2543,0.2634,0.2637,0.2639,0.2641,0,0.153,0.1595,0.169,0.1804,0.1835,0.1903,0.202,0.2093,0.2216,0.2278,0.237,0.2424,0.2526,0.2502,0.2619,0.2588,0.2615,0.2638,0.2642,0.2475,0.2431,0.2539,0.2663,0.2661,0.266,0.2658,0.2657,0,0.1483,0.1613,0.1687,0.173,0.1865,0.1924,0.1999,0.2118,0.2191,0.233,0.2404,0.2512,0.2593,0.2647,0.2705,0.2681,0.2813,0.2781,0.2661,0.2651,0.273,0.2718,0.2849,0.2849,0.2849,0.2848,0.2848,0,0.1475,0.1541,0.1677,0.1718,0.1809,0.1909,0.2012,0.2099,0.2238,0.2319,0.2439,0.2515,0.2639,0.2724,0.2746,0.2744,0.2851,0.2674,0.2666,0.276,0.2749,0.274,0.2726,0.2852,0.2851,0.285,0.285,0,0.1412,0.1505,0.1592,0.1737,0.1791,0.1851,0.2018,0.2079,0.2228,0.2341,0.2398,0.2565,0.2666,0.2758,0.2858,0.2787,0.2805,0.2774,0.2881,0.2876,0.2596,0.2585,0.2639,0.2634,0.263,0.2627,0.2624,0,0.1386,0.1427,0.1582,0.163,0.1703,0.1816,0.1886,0.2055,0.2121,0.2339,0.2377,0.2548,0.2632,0.2655,0.2755,0.2791,0.2757,0.2741,0.2644,0.2589,0.2577,0.2572,0.2566,0.2618,0.2617,0.2616,0.2615,0,0.1326,0.1389,0.1456,0.1554,0.1638,0.1722,0.184,0.1885,0.2063,0.2223,0.2306,0.2373,0.2484,0.2555,0.2612,0.2625,0.2736,0.2699,0.2706,0.2615,0.2564,0.2555,0.2554,0.2601,0.2603,0.2604,0.2605,0,0.1273,0.1296,0.1386,0.1458,0.1553,0.1598,0.1678,0.1766,0.1864,0.2098,0.2119,0.2295,0.2452,0.2471,0.2519,0.2529,0.2482,0.2386,0.2408,0.2424,0.2312,0.2214,0.2142,0,0,0,0,0,0.1212,0.123,0.1286,0.1354,0.1436,0.1497,0.1632,0.1713,0.189,0.1893,0.2005,0.2093,0.2178,0.2276,0.2245,0.2426,0.2491,0.2377,0.239,0.2525,0.2541,0.2429,0,0,0,0,0,0,0.1173,0.1224,0.1246,0.125,0.1275,0.1356,0.1434,0.1552,0.157,0.1757,0.182,0.1961,0.2082,0.2175,0.2203,0.2232,0.2195,0.2493,0.2488,0.2516,0.253,0.2543,0.2433,0,0,0,0,0]},{"header":{"parameterUnit":"m.s-1","parameterCategory":2,"la1":30.2991,"la2":30.254,"lo1":-89.0895,"lo2":-89.0444,"dy":0.0017,"dx":0.0017,"nx":28,"ny":28,"refTime":"2025-04-25T21:00:00:Z","depth":"4","parameterNumber":3,"parameterNumberName":"V-component_of_CURRENTS"},"data":[0,0,0,0,0,0,0,0,0,0,0,0,0,0,0,0,0,0,0,0,0,0,0,0,0,0,0,0,0,0,0,0,0,0,0,0,0,0,0,0,0,0,0,0,0,0,0,0,0,0,0,0,0,0,0,0,0,0,0.0025,0.0024,0,-0.0018,-0.0019,-0.002,-0.0047,-0.0047,-0.0047,-0.0047,-0.0121,-0.0123,-0.0125,0,0,0,0,0,0,0,0,0,0,0,0,0,0.0041,0.0041,0.0025,0.0024,0.0024,-0.0018,-0.0019,-0.002,-0.0047,-0.0047,-0.0047,-0.0047,-0.0121,-0.0123,-0.0125,0,0,0,0,0,0,0,0,0,0,0,0,0,0.0018,0.0041,0.0025,0.0006,0.0005,-0.0018,-0.0019,-0.002,-0.0047,-0.0047,-0.0047,-0.0047,-0.012,-0.0123,-0.0126,-0.0144,0,0,-0.0135,-0.0136,0,0,0,0,0,0,0,0,0.002,0.0017,0.001,0.0008,0.0006,-0.0026,-0.004,-0.0062,-0.0047,-0.0029,-0.0047,-0.0047,-0.0091,-0.0096,-0.0106,-0.0147,-0.015,-0.0135,-0.0137,-0.0138,-0.0139,0,0,0,0,0,0,0,0.0021,0.0019,0.0006,0.0009,0.0007,-0.0014,-0.0017,-0.0045,-0.0061,-0.0031,-0.0032,-0.0034,-0.0093,-0.0103,-0.0108,-0.0151,-0.0135,-0.0137,-0.0139,-0.014,-0.0217,-0.0218,0,0,0,0,0,0,0.0032,0.0021,0.0007,0.0005,0.0015,-0.0014,-0.0017,-0.0017,-0.006,-0.0066,-0.0034,-0.0036,-0.0098,-0.0105,-0.0111,-0.0126,-0.0138,-0.0141,-0.0142,-0.0217,-0.0217,-0.0218,0,0,0,0,0,0,0.0033,0.0031,0.0009,0.0013,0.0009,-0.0014,-0.0013,-0.0018,-0.0027,-0.0063,-0.007,-0.0039,-0.0099,-0.0107,-0.0134,-0.013,-0.0142,-0.0145,-0.0217,-0.0217,-0.0218,-0.0162,0,0,0,0,0,0,0.0033,0.0032,0.0034,0.0014,0.0009,0.0003,-0.0013,-0.0019,-0.0028,-0.003,-0.0069,-0.0076,-0.0099,-0.0129,-0.0137,-0.0134,-0.0147,-0.0216,-0.0217,-0.0217,-0.0164,-0.0161,-0.0158,0,0,0,0,0,0.0034,0.0043,0.0034,0.0033,0.0013,0.0003,-0.0001,-0.0019,-0.0028,-0.0028,-0.0057,-0.0074,-0.0138,-0.0132,-0.0141,-0.0139,-0.0216,-0.0217,-0.0217,-0.0165,-0.0161,-0.0158,0,0,0,0,0,0,0.0048,0.0041,0.0031,0.0036,0.0022,-0.0,-0.0001,-0.0016,-0.0039,-0.0041,-0.0078,-0.0087,-0.0109,-0.0135,-0.0127,-0.0164,-0.018,-0.0183,-0.0138,-0.0135,-0.0132,-0.0113,-0.015,0,0,0,0,0,0.0053,0.006,0.0043,0.0046,0.0043,0.0019,0.0012,0.0002,-0.002,-0.003,-0.0058,-0.009,-0.012,-0.0134,-0.0164,-0.0183,-0.0208,-0.0189,-0.0186,-0.0183,-0.0175,-0.0211,-0.0211,-0.022,-0.022,-0.022,0,0,0.0059,0.0055,0.0058,0.005,0.0038,0.0041,0.0015,0.0011,0.0011,-0.0035,-0.0046,-0.0082,-0.0124,-0.0144,-0.0157,-0.0163,-0.0195,-0.0184,-0.0181,-0.0175,-0.0212,-0.0211,-0.021,-0.022,-0.022,-0.022,0,0,0.0081,0.0072,0.0086,0.0081,0.0072,0.0058,0.0059,0.0038,0.0027,0.001,-0.0025,-0.0056,-0.0098,-0.0126,-0.0146,-0.0148,-0.018,-0.016,-0.0128,-0.0163,-0.0162,-0.0162,-0.019,-0.0193,-0.0157,-0.0157,-0.0157,0,0.0088,0.0104,0.0087,0.01,0.0103,0.0069,0.0085,0.0067,0.0039,0.0032,0.0015,-0.005,-0.0087,-0.0115,-0.0116,-0.014,-0.0163,-0.0133,-0.0157,-0.0158,-0.0158,-0.0188,-0.0191,-0.0154,-0.0154,-0.0155,-0.0155,0,0.0121,0.0134,0.0143,0.015,0.0147,0.0155,0.0134,0.0125,0.0104,0.0083,0.0052,-0.0002,-0.0037,-0.006,-0.0089,-0.0111,-0.0128,-0.0149,-0.016,-0.0153,-0.0186,-0.019,-0.015,-0.0151,-0.0152,-0.0153,0,0,0.014,0.0165,0.0167,0.0185,0.0177,0.0181,0.018,0.017,0.0175,0.013,0.0129,0.0064,0.0033,0.0007,-0.0039,-0.0074,-0.0102,-0.0107,-0.011,-0.0124,-0.0175,-0.0174,-0.018,-0.0126,-0.0127,-0.0127,-0.0195,0,0.0172,0.0217,0.0215,0.025,0.0271,0.0249,0.0253,0.0237,0.0214,0.0202,0.0137,0.0116,0.0059,0.0045,-0.0001,-0.0074,-0.0112,-0.0081,-0.0189,-0.0192,-0.0183,-0.0184,-0.0129,-0.0199,-0.02,-0.02,-0.0201,0,0.0203,0.0233,0.028,0.0312,0.0318,0.0331,0.0338,0.0338,0.0305,0.0288,0.0248,0.0201,0.0143,0.0095,-0.0025,-0.0002,-0.0081,-0.0143,-0.0148,-0.0168,-0.0199,-0.021,-0.021,-0.0209,-0.0208,-0.0208,-0.0207,0,0.0229,0.0275,0.0319,0.033,0.0357,0.0372,0.0379,0.0364,0.038,0.0346,0.0353,0.0268,0.0237,0.0126,-0.0004,-0.0013,-0.0135,-0.0165,-0.0242,-0.0243,-0.0247,-0.0247,-0.025,-0.025,-0.025,-0.025,-0.025,0,0.0261,0.0295,0.0339,0.0363,0.0417,0.0415,0.046,0.0451,0.0456,0.0479,0.0403,0.04,0.0244,0.0156,0.0024,-0.0116,-0.0116,-0.0232,-0.0259,-0.0223,-0.0219,-0.025,-0.0249,-0.0252,-0.0252,-0.0251,-0.0251,0,0.0275,0.0305,0.0359,0.0408,0.0432,0.0464,0.0526,0.0556,0.0552,0.0581,0.0578,0.0503,0.0387,0.0228,0.005,-0.0065,-0.0208,-0.0261,-0.0198,-0.0221,-0.0301,-0.0296,-0.0349,-0.035,-0.035,-0.0351,-0.0351,0,0.0286,0.0317,0.0395,0.0437,0.0464,0.0524,0.057,0.0597,0.0635,0.0642,0.0658,0.0572,0.0496,0.0261,0.0076,-0.0166,-0.021,-0.0288,-0.031,-0.0289,-0.0311,-0.0306,-0.0301,-0.0352,-0.0352,-0.0352,-0.0352,0,0.0303,0.033,0.0378,0.047,0.0532,0.0609,0.0676,0.0718,0.0746,0.0751,0.0734,0.0611,0.0481,0.0278,0.0094,-0.0087,-0.0239,-0.0294,-0.0294,-0.0316,-0.0293,-0.0313,-0.0307,-0.0354,-0.0353,-0.0353,-0.0353,0,0.0314,0.0348,0.0418,0.0499,0.0584,0.0668,0.0704,0.0757,0.0799,0.0806,0.0798,0.0653,0.057,0.0319,0.0147,-0.0026,-0.0084,-0.0156,-0.0165,-0.0166,-0.0102,-0.0045,-0.0047,0,0,0,0,0,0.0324,0.0373,0.0446,0.054,0.0624,0.0681,0.0766,0.0796,0.0832,0.0833,0.0822,0.07,0.0456,0.0354,0.0183,0.0112,-0.013,-0.0098,-0.0222,-0.0362,-0.036,-0.0317,0,0,0,0,0,0,0.0334,0.0402,0.0446,0.0563,0.0633,0.0734,0.0792,0.0816,0.0821,0.0827,0.071,0.0647,0.0417,0.0561,0.018,0.0127,0.002,-0.0209,-0.0213,-0.0363,-0.0362,-0.036,-0.0315,0,0,0,0,0]}]]